#timestamp,LO_Frequency,Hit,StdDev 
1509472815.4,286046998.6,N
1509472835.2,286047002.5,N
1509472855.0,286046999.9,N
1509472855.9,286046999.9,N
1509472875.8,286046998.5,N
1509472895.6,286047003.9,N
1509472915.4,286047004.5,N
1509472935.3,286047006.0,N
1509472955.1,286047006.2,N
1509472975.9,286047007.6,N
1509472995.7,286047010.8,Y
1509473015.5,286047000.0,P
1509473035.4,286047005.7,P
1509473055.2,286047007.5,P
1509473075.0,286047005.4,N
1509473075.9,286047005.4,N
1509473095.8,286047005.4,N
1509473115.6,286047007.3,Y
1509473135.4,286047003.6,P
1509473155.3,286047005.4,P
1509473175.1,286047003.5,P
1509473195.9,286047005.0,Y
1509473215.7,286047003.7,P
1509473235.5,286047003.8,P
1509473255.4,286047006.7,P
1509473275.2,286047007.5,Y
1509473295.0,286047002.7,P
1509473295.9,286047002.7,N
1509473315.8,286047002.2,N
1509473335.6,286047004.4,Y
1509473355.4,286047002.7,P
1509473375.3,286047004.4,P
1509473395.1,286047004.3,P
1509473415.9,286047003.9,Y
1509473435.7,286046998.4,P
1509473455.5,286046993.8,N
1509473475.4,286046993.8,N
1509473495.2,286046998.0,N
1509473515.0,286046995.6,N
1509473515.9,286046995.6,N
1509473535.8,286046994.1,N
1509473555.6,286046994.1,N
1509473575.4,286046993.8,N
1509473595.3,286046993.4,N
1509473615.1,286046997.1,N
1509473616.0,286046997.1,N
1509473635.8,286046993.4,N
1509473655.7,286046995.6,N
1509473675.5,286046996.3,N
1509473695.3,286046997.9,N
1509473715.2,286046994.4,N
1509473735.9,286046993.8,N
1509473755.7,286046995.5,N
1509473775.6,286046994.2,N
1509473795.4,286046994.1,N
1509473815.2,286046994.3,N
1509473835.1,286046997.4,N
1509473836.0,286046997.4,N
1509473855.8,286046994.9,N
1509473875.7,286046993.3,Y
1509473895.5,286046996.9,P
1509473915.3,286047000.4,N
1509473935.2,286046998.6,N
1509473955.9,286046996.5,N
1509473975.7,286046999.2,N
1509473995.6,286046994.9,Y
1509474015.4,286046998.3,P
1509474035.2,286046996.5,P
1509474055.1,286047002.8,P
1509474056.0,286047002.8,N
1509474075.8,286047000.2,N
1509474095.6,286046998.8,N
1509474115.5,286046998.4,N
1509474135.3,286046998.6,N
1509474155.1,286047001.0,N
1509474175.9,286046994.8,N
1509474195.7,286046987.6,Y
1509474215.6,286046989.8,P
1509474235.4,286046985.5,P
1509474255.2,286046986.4,N
1509474275.1,286046982.3,Y
1509474276.0,286046982.3,P
1509474295.8,286046994.4,N
1509474315.6,286046988.9,N
1509474335.5,286046987.2,N
1509474355.3,286046992.5,N
1509474375.1,286046995.5,N
1509474395.9,286046993.5,N
1509474415.7,286046989.4,N
1509474435.5,286046990.8,N
1509474455.4,286046992.9,N
1509474475.2,286046990.2,N
1509474495.0,286046987.5,Y
1509474496.0,286046987.5,P
1509474515.8,286046997.2,N
1509474535.6,286046999.0,N
1509474555.5,286047001.1,N
1509474575.3,286046999.4,N
1509474595.1,286046999.7,N
1509474615.9,286047001.0,N
1509474635.7,286047000.5,N
1509474655.5,286047005.5,N
1509474675.4,286047004.5,N
1509474695.2,286047005.9,N
1509474715.0,286047008.5,N
1509474715.9,286047008.5,N
1509474735.8,286047006.5,N
1509474755.6,286047007.3,N
1509474775.4,286047008.5,N
1509474795.3,286047012.3,N
1509474815.1,286047014.0,N
1509474816.0,286047014.0,N
1509474835.8,286047017.1,N
1509474855.7,286047019.5,N
1509474875.5,286047019.7,N
1509474895.3,286047023.3,N
1509474915.2,286047022.6,N
1509474935.9,286047020.9,N
1509474955.7,286047020.2,N
1509474975.6,286047019.3,N
1509474995.4,286047023.3,N
1509475015.2,286047023.5,N
1509475035.1,286047018.4,N
1509475036.0,286047018.4,N
1509475055.8,286047016.5,N
1509475075.6,286047016.0,N
1509475095.5,286047019.4,N
1509475115.3,286047023.0,N
1509475135.1,286047024.4,Y
1509475155.9,286047011.6,P
1509475175.7,286047011.3,P
1509475195.5,286047012.7,P
1509475215.4,286047012.5,Y
1509475235.2,286046999.9,P
1509475255.1,286047002.3,N
1509475256.0,286047002.3,N
1509475275.8,286047004.0,N
1509475295.6,286047003.1,N
1509475315.5,286047003.7,N
1509475335.3,286047001.3,N
1509475355.1,286047001.4,N
1509475375.9,286047002.5,N
1509475395.7,286047004.3,N
1509475415.5,286047001.7,N
1509475435.4,286047000.1,N
1509475455.2,286047004.7,N
1509475475.0,286047005.3,N
1509475475.9,286047005.3,N
1509475495.8,286047004.8,N
1509475515.6,286047005.0,N
1509475535.4,286047004.8,N
1509475555.3,286047006.7,N
1509475575.1,286047006.4,N
1509475576.0,286047006.4,N
1509475595.8,286047004.5,N
1509475615.7,286047003.3,N
1509475635.5,286047002.6,N
1509475655.3,286046996.8,N
1509475675.2,286046996.9,N
1509475695.9,286046996.6,N
1509475715.7,286046997.5,N
1509475735.6,286046998.6,N
1509475755.4,286047002.1,N
1509475775.2,286047000.5,N
1509475795.1,286047001.0,N
1509475796.0,286047001.0,N
1509475815.8,286046998.7,N
1509475835.6,286046997.8,N
1509475855.5,286046997.5,N
1509475875.3,286046997.4,N
1509475895.1,286046997.5,N
1509475915.9,286046995.3,N
1509475935.7,286046996.7,N
1509475955.5,286046996.6,N
1509475975.4,286046995.3,N
1509475995.2,286046996.3,N
1509476015.0,286046992.5,N
1509476016.0,286046992.5,N
1509476035.8,286046993.0,N
1509476055.6,286046994.3,N
1509476075.5,286046994.5,N
1509476095.3,286046992.5,N
1509476115.1,286046995.2,N
1509476135.9,286046993.8,N
1509476155.7,286046993.0,N
1509476175.5,286046986.9,Y
1509476195.4,286046990.5,P
1509476215.2,286046986.9,P
1509476235.0,286046991.4,N
1509476235.9,286046991.4,N
1509476255.8,286046990.2,Y
1509476275.6,286047000.8,P
1509476295.5,286046997.9,N
1509476315.3,286046995.1,N
1509476335.1,286046995.5,N
1509476355.9,286046995.6,N
1509476375.7,286046993.3,N
1509476395.5,286046993.5,N
